[[{"header":{"parameterUnit":"m.s-1","parameterCategory":1,"la1":30.2991,"la2":30.254,"lo1":-89.0895,"lo2":-89.0444,"dy":0.0017,"dx":0.0017,"nx":28,"ny":28,"refTime":"2023-03-13T21:00:00:Z","depth":0,"parameterNumber":2,"parameterNumberName":"U-component_of_WINDS"},"data":[0,0,0,0,0,0,0,0,0,0,0,0,0,0,0,0,0,0,0,0,0,0,0,0,0,0,0,0,0,0,0,0,0,0,0,0,0,0,0,0,0,0,0,0,0,0,0,0,0,0,0,0,0,0,0,0,0,0,-0.8687,-0.8689,0,-0.8844,-0.8846,-0.8847,-0.8845,-0.8843,-0.8841,-0.8839,-0.9007,-0.9014,-0.902,0,0,0,0,0,0,0,0,0,0,0,0,0,-0.8392,-0.8397,-0.8687,-0.8689,-0.8691,-0.8843,-0.8846,-0.8848,-0.8846,-0.8843,-0.884,-0.8838,-0.9005,-0.9013,-0.9021,0,0,0,0,0,0,0,0,0,0,0,0,0,-0.8532,-0.8399,-0.8686,-0.8708,-0.8711,-0.8843,-0.8846,-0.8848,-0.8846,-0.8843,-0.884,-0.8837,-0.9003,-0.9012,-0.9022,-0.9145,0,0,-0.9051,-0.9055,0,0,0,0,0,0,0,0,-0.8524,-0.8543,-0.8703,-0.8707,-0.8711,-0.8821,-0.8803,-0.8948,-0.8847,-0.8795,-0.8839,-0.8835,-0.8949,-0.8963,-0.8999,-0.9153,-0.916,-0.9052,-0.9058,-0.9062,-0.9065,0,0,0,0,0,0,0,-0.8514,-0.8536,-0.8749,-0.8705,-0.871,-0.8712,-0.8728,-0.8831,-0.8888,-0.8799,-0.88,-0.8818,-0.895,-0.899,-0.9003,-0.9163,-0.9052,-0.906,-0.9066,-0.907,-0.9427,-0.943,0,0,0,0,0,0,-0.8499,-0.8528,-0.8744,-0.8754,-0.8607,-0.872,-0.8738,-0.8789,-0.8887,-0.8899,-0.882,-0.8817,-0.8975,-0.8992,-0.9009,-0.9161,-0.9062,-0.9071,-0.9077,-0.9423,-0.9427,-0.9431,0,0,0,0,0,0,-0.8493,-0.8518,-0.8738,-0.8641,-0.8669,-0.8728,-0.8786,-0.8794,-0.8834,-0.8903,-0.8913,-0.885,-0.8973,-0.8995,-0.9111,-0.9167,-0.9076,-0.9084,-0.9419,-0.9424,-0.9429,-0.9466,0,0,0,0,0,0,-0.8484,-0.8516,-0.8562,-0.8642,-0.8674,-0.8835,-0.8789,-0.8799,-0.8849,-0.8847,-0.8933,-0.8945,-0.8972,-0.9097,-0.9121,-0.9179,-0.9092,-0.9414,-0.9421,-0.9428,-0.946,-0.9472,-0.9482,0,0,0,0,0,-0.8474,-0.8567,-0.8564,-0.859,-0.8732,-0.8838,-0.8857,-0.8885,-0.8854,-0.8902,-0.8946,-0.8942,-0.9156,-0.9108,-0.9135,-0.9197,-0.9411,-0.9419,-0.9427,-0.9455,-0.9469,-0.9482,0,0,0,0,0,0,-0.8495,-0.8578,-0.8576,-0.8698,-0.8761,-0.8838,-0.8899,-0.8899,-0.8974,-0.8969,-0.9002,-0.9022,-0.9138,-0.9179,-0.9124,-0.9322,-0.928,-0.9294,-0.9292,-0.9306,-0.9317,-0.9306,-0.91,0,0,0,0,0,-0.8514,-0.859,-0.866,-0.8761,-0.8792,-0.884,-0.8887,-0.8903,-0.8971,-0.8998,-0.9051,-0.9119,-0.9201,-0.9256,-0.9335,-0.9464,-0.9485,-0.952,-0.9531,-0.954,-0.9553,-0.9626,-0.9643,-0.9458,-0.9458,-0.9458,0,0,-0.8554,-0.8608,-0.8656,-0.8766,-0.8817,-0.8898,-0.8863,-0.895,-0.9012,-0.9012,-0.9124,-0.9165,-0.9243,-0.9366,-0.9423,-0.9404,-0.9608,-0.9551,-0.9557,-0.9565,-0.9636,-0.9654,-0.9669,-0.9464,-0.9463,-0.9462,0,0,-0.8669,-0.8717,-0.8807,-0.8857,-0.8933,-0.8965,-0.8986,-0.9063,-0.909,-0.9202,-0.9204,-0.9278,-0.942,-0.9476,-0.9523,-0.9657,-0.9657,-0.9682,-0.9741,-0.9812,-0.9827,-0.984,-0.989,-0.9907,-0.9694,-0.9694,-0.9694,0,-0.871,-0.883,-0.8853,-0.8941,-0.8991,-0.8991,-0.9084,-0.9133,-0.9233,-0.9268,-0.9244,-0.9421,-0.9474,-0.9611,-0.9644,-0.9681,-0.9708,-0.9674,-0.9822,-0.9835,-0.9848,-0.9897,-0.9915,-0.9697,-0.9696,-0.9696,-0.9696,0,-0.8878,-0.8961,-0.9025,-0.9118,-0.9175,-0.9265,-0.9304,-0.9358,-0.9369,-0.9403,-0.9518,-0.958,-0.9673,-0.9706,-0.9718,-0.9846,-0.9831,-0.9814,-0.9773,-0.9868,-0.9914,-0.9933,-0.9701,-0.97,-0.9699,-0.9698,0,0,-0.9014,-0.9117,-0.9141,-0.9183,-0.9267,-0.9333,-0.9423,-0.9511,-0.9559,-0.9627,-0.9705,-0.9824,-0.9808,-0.9861,-0.9879,-0.9941,-1.0046,-0.9916,-0.9919,-0.994,-1.0192,-1.0207,-1.0228,-1.0044,-1.0048,-1.0051,-1.0187,0,-0.914,-0.9298,-0.9321,-0.9461,-0.954,-0.9541,-0.962,-0.9681,-0.9715,-0.9788,-0.9826,-0.9911,-0.9882,-0.9915,-0.9975,-1.002,-1.0097,-1.001,-1.0121,-1.0125,-1.0104,-1.0251,-1.0267,-1.0392,-1.0205,-1.0208,-1.021,0,-0.9308,-0.9378,-0.9526,-0.9598,-0.9632,-0.9703,-0.9786,-0.9854,-0.9924,-0.9945,-1.0003,-1.0013,-1.0109,-1.0061,-1.0195,-1.0135,-1.0181,-1.021,-1.0215,-1.023,-1.0175,-1.0272,-1.0433,-1.0452,-1.0238,-1.0236,-1.0234,0,-0.9395,-0.9527,-0.9632,-0.9668,-0.9755,-0.9805,-0.9844,-0.991,-0.9961,-1.0034,-1.0069,-1.0152,-1.0199,-1.0265,-1.0298,-1.026,-1.0431,-1.0385,-1.0453,-1.0453,-1.0492,-1.049,-1.0665,-1.0517,-1.0517,-1.0516,-1.0516,0,-0.9535,-0.9626,-0.9673,-0.9738,-0.984,-0.9866,-0.9968,-1.0006,-1.0064,-1.0139,-1.0144,-1.0215,-1.0253,-1.0329,-1.0356,-1.0464,-1.0485,-1.0506,-1.0513,-1.0507,-1.0505,-1.054,-1.0534,-1.0521,-1.052,-1.0519,-1.0518,0,-0.9651,-0.9686,-0.9801,-0.9873,-0.9893,-0.9966,-1.0028,-1.0093,-1.0125,-1.0219,-1.0243,-1.0295,-1.0385,-1.0423,-1.0535,-1.0553,-1.0678,-1.0676,-1.0654,-1.0657,-1.0723,-1.0718,-1.093,-1.096,-1.079,-1.0791,-1.0792,0,-0.974,-0.9809,-0.9888,-0.9937,-0.9976,-1.0055,-1.0107,-1.0135,-1.019,-1.0274,-1.0329,-1.0418,-1.0492,-1.0636,-1.0685,-1.0771,-1.0774,-1.0842,-1.0787,-1.078,-1.0778,-1.0775,-1.0783,-1.0853,-1.0855,-1.0856,-1.0858,0,-0.9894,-0.9907,-0.998,-1.006,-1.0121,-1.0186,-1.0249,-1.029,-1.0328,-1.0389,-1.048,-1.0536,-1.0649,-1.0739,-1.0827,-1.087,-1.0872,-1.0874,-1.0895,-1.0892,-1.0877,-1.0888,-1.0684,-1.087,-1.0869,-1.0868,-1.0867,-1.0867,-1.0001,-1.0063,-1.0128,-1.021,-1.0259,-1.0318,-1.0382,-1.0422,-1.0497,-1.0589,-1.0602,-1.07,-1.0768,-1.0886,-1.0932,-1.101,-1.0994,-1.1023,-1.1031,-1.1039,-1.1044,-1.0861,-1.1026,-1.1026,-1.1026,-1.1025,-1.1025,0,-1.0157,-1.0198,-1.0273,-1.036,-1.0425,-1.0417,-1.0486,-1.0542,-1.0627,-1.0689,-1.076,-1.0866,-1.0952,-1.1007,-1.1095,-1.1148,-1.1151,-1.117,-1.1168,-1.1179,-1.1053,-1.1027,-1.1166,-1.1166,-1.1166,-1.1166,-1.1166,-1.1166,-1.0247,-1.0352,-1.0373,-1.0503,-1.0544,-1.0638,-1.0679,-1.0734,-1.0784,-1.09,-1.0971,-1.1005,-1.1065,-1.1157,-1.1237,-1.1251,-1.1285,-1.1306,-1.1319,-1.1202,-1.1187,-1.1173,-1.115,-1.1312,-1.1312,-1.1439,-1.144,-1.1441]},{"header":{"parameterUnit":"m.s-1","parameterCategory":1,"la1":30.2991,"la2":30.254,"lo1":-89.0895,"lo2":-89.0444,"dy":0.0017,"dx":0.0017,"nx":28,"ny":28,"refTime":"2023-03-13T21:00:00:Z","depth":0,"parameterNumber":3,"parameterNumberName":"V-component_of_WINDS"},"data":[0,0,0,0,0,0,0,0,0,0,0,0,0,0,0,0,0,0,0,0,0,0,0,0,0,0,0,0,0,0,0,0,0,0,0,0,0,0,0,0,0,0,0,0,0,0,0,0,0,0,0,0,0,0,0,0,0,0,-6.5478,-6.5479,0,-6.5576,-6.5578,-6.5579,-6.5477,-6.5473,-6.5469,-6.5465,-6.5563,-6.5569,-6.5575,0,0,0,0,0,0,0,0,0,0,0,0,0,-6.5199,-6.5205,-6.5478,-6.5479,-6.5481,-6.5576,-6.5578,-6.5579,-6.5478,-6.5473,-6.5468,-6.5464,-6.5561,-6.5568,-6.5576,0,0,0,0,0,0,0,0,0,0,0,0,0,-6.5311,-6.5207,-6.5478,-6.5442,-6.5439,-6.5576,-6.5578,-6.5579,-6.5479,-6.5473,-6.5467,-6.5461,-6.5558,-6.5567,-6.5577,-6.5753,0,0,-6.5605,-6.5609,0,0,0,0,0,0,0,0,-6.5305,-6.5321,-6.5446,-6.5444,-6.5442,-6.5508,-6.5515,-6.5637,-6.548,-6.5464,-6.5465,-6.5458,-6.5549,-6.5559,-6.559,-6.5757,-6.5761,-6.5606,-6.5612,-6.5616,-6.5619,0,0,0,0,0,0,0,-6.5297,-6.5317,-6.5517,-6.5448,-6.5446,-6.5419,-6.5429,-6.5538,-6.5538,-6.5465,-6.5458,-6.5471,-6.5547,-6.5582,-6.5592,-6.5763,-6.5606,-6.5614,-6.562,-6.5624,-6.6078,-6.6084,0,0,0,0,0,0,-6.5294,-6.5311,-6.5514,-6.552,-6.5358,-6.5429,-6.544,-6.5493,-6.5537,-6.5538,-6.5476,-6.5466,-6.5568,-6.5581,-6.5595,-6.5803,-6.5616,-6.5625,-6.563,-6.6072,-6.608,-6.6086,0,0,0,0,0,0,-6.5288,-6.5313,-6.551,-6.5414,-6.5437,-6.544,-6.5501,-6.5498,-6.5532,-6.5545,-6.5544,-6.5511,-6.5564,-6.5582,-6.5714,-6.5805,-6.5629,-6.5637,-6.6064,-6.6074,-6.6083,-6.6223,0,0,0,0,0,0,-6.5281,-6.5312,-6.538,-6.5416,-6.5442,-6.5629,-6.5507,-6.5504,-6.5549,-6.5537,-6.5578,-6.5579,-6.5561,-6.5701,-6.5724,-6.5815,-6.5645,-6.6056,-6.6069,-6.608,-6.621,-6.6236,-6.6258,0,0,0,0,0,-6.5271,-6.5415,-6.5384,-6.5409,-6.5527,-6.5635,-6.565,-6.5627,-6.5557,-6.5625,-6.5633,-6.5578,-6.5792,-6.5715,-6.574,-6.5836,-6.605,-6.6065,-6.6079,-6.6199,-6.6231,-6.6257,0,0,0,0,0,0,-6.5388,-6.5419,-6.5385,-6.5544,-6.5588,-6.5617,-6.5702,-6.5661,-6.5724,-6.571,-6.5678,-6.5688,-6.5828,-6.5845,-6.5759,-6.6008,-6.5909,-6.593,-6.5992,-6.6022,-6.6046,-6.6039,-6.5652,0,0,0,0,0,-6.5433,-6.5518,-6.554,-6.5678,-6.5702,-6.5699,-6.5745,-6.5723,-6.5766,-6.5784,-6.5802,-6.5845,-6.5921,-6.5973,-6.6044,-6.6212,-6.6218,-6.6289,-6.6314,-6.6333,-6.6351,-6.644,-6.6471,-6.6134,-6.6134,-6.6134,0,0,-6.5525,-6.5552,-6.5608,-6.5703,-6.5734,-6.5822,-6.5715,-6.5813,-6.5878,-6.5798,-6.5925,-6.594,-6.5985,-6.6136,-6.6203,-6.6154,-6.6446,-6.6352,-6.6367,-6.6374,-6.6458,-6.649,-6.6518,-6.6144,-6.6142,-6.6141,0,0,-6.5738,-6.5768,-6.5887,-6.592,-6.5969,-6.5966,-6.5995,-6.6031,-6.6038,-6.6164,-6.6106,-6.6182,-6.6315,-6.635,-6.6385,-6.6612,-6.6563,-6.6636,-6.6762,-6.6849,-6.6875,-6.6899,-6.6979,-6.7008,-6.6654,-6.6654,-6.6654,0,-6.5847,-6.5979,-6.5953,-6.6055,-6.6098,-6.6031,-6.615,-6.6183,-6.6253,-6.6283,-6.6228,-6.6393,-6.6419,-6.6577,-6.6632,-6.6663,-6.6694,-6.6631,-6.6874,-6.6897,-6.6919,-6.6995,-6.7025,-6.6662,-6.6661,-6.6661,-6.666,0,-6.611,-6.6202,-6.6292,-6.6362,-6.6414,-6.6525,-6.6514,-6.657,-6.6544,-6.6546,-6.6675,-6.6704,-6.678,-6.6816,-6.6791,-6.697,-6.6938,-6.6879,-6.6779,-6.696,-6.7031,-6.706,-6.6675,-6.6671,-6.6669,-6.6667,0,0,-6.64,-6.6454,-6.6487,-6.6518,-6.6566,-6.6637,-6.6743,-6.6818,-6.6867,-6.6917,-6.7005,-6.7119,-6.7064,-6.7104,-6.7083,-6.7159,-6.7336,-6.709,-6.7091,-6.7135,-6.7534,-6.7578,-6.7613,-6.7304,-6.731,-6.7314,-6.753,0,-6.6614,-6.6801,-6.678,-6.6957,-6.7042,-6.6979,-6.7072,-6.7111,-6.7116,-6.7187,-6.7191,-6.7273,-6.7195,-6.7219,-6.7292,-6.7299,-6.7416,-6.7283,-6.7384,-6.7388,-6.7375,-6.765,-6.7697,-6.7899,-6.7558,-6.7562,-6.7566,0,-6.689,-6.6951,-6.7137,-6.7172,-6.7207,-6.7291,-6.7358,-6.7427,-6.747,-6.7468,-6.7513,-6.7477,-6.7583,-6.7481,-6.7625,-6.7536,-6.7576,-6.7586,-6.7593,-6.7601,-6.7488,-6.7665,-6.7964,-6.7994,-6.7609,-6.7606,-6.7603,0,-6.7082,-6.7211,-6.7338,-6.7367,-6.7411,-6.7472,-6.7493,-6.753,-6.7576,-6.7634,-6.7663,-6.7733,-6.777,-6.7824,-6.7808,-6.7735,-6.7956,-6.7853,-6.7956,-6.7956,-6.8005,-6.8002,-6.8314,-6.8032,-6.8031,-6.803,-6.803,0,-6.7324,-6.744,-6.7426,-6.7504,-6.7632,-6.7606,-6.7733,-6.7746,-6.778,-6.7859,-6.7808,-6.7883,-6.7857,-6.793,-6.7918,-6.8039,-6.8056,-6.8057,-6.8052,-6.8062,-6.8062,-6.8087,-6.8072,-6.8038,-6.8037,-6.8035,-6.8034,0,-6.7561,-6.7556,-6.7691,-6.7722,-6.7733,-6.7826,-6.7852,-6.7925,-6.7925,-6.8026,-6.8048,-6.8049,-6.8132,-6.8122,-6.8214,-6.8206,-6.8356,-6.8335,-6.8343,-6.8338,-6.8441,-6.8431,-6.878,-6.8824,-6.8514,-6.8517,-6.8519,0,-6.7716,-6.7804,-6.7845,-6.7895,-6.792,-6.8001,-6.8048,-6.8026,-6.8077,-6.8132,-6.8198,-6.8277,-6.8339,-6.8475,-6.8483,-6.8554,-6.8533,-6.865,-6.8543,-6.855,-6.8534,-6.8529,-6.8538,-6.8672,-6.8675,-6.8678,-6.868,0,-6.799,-6.7983,-6.8054,-6.8124,-6.8182,-6.8236,-6.8284,-6.8328,-6.8309,-6.8369,-6.8454,-6.8503,-6.8597,-6.8676,-6.8743,-6.8762,-6.8719,-6.8714,-6.8741,-6.8752,-6.8753,-6.8753,-6.84,-6.8706,-6.8703,-6.8702,-6.87,-6.8699,-6.819,-6.8266,-6.8306,-6.8386,-6.842,-6.8467,-6.8537,-6.8547,-6.8618,-6.8694,-6.8676,-6.8773,-6.8811,-6.8896,-6.8923,-6.8997,-6.8954,-6.8994,-6.9004,-6.9014,-6.9026,-6.8741,-6.9009,-6.9008,-6.9008,-6.9007,-6.9006,0,-6.8462,-6.8485,-6.8559,-6.8629,-6.8692,-6.8646,-6.8697,-6.8752,-6.8838,-6.8879,-6.8941,-6.9039,-6.9115,-6.9129,-6.9201,-6.9257,-6.9239,-6.9277,-6.9272,-6.9277,-6.9061,-6.903,-6.9291,-6.929,-6.929,-6.929,-6.929,-6.929,-6.8611,-6.8736,-6.8734,-6.8874,-6.8895,-6.899,-6.9023,-6.9065,-6.9098,-6.921,-6.9273,-6.9282,-6.9312,-6.9385,-6.9453,-6.9455,-6.9483,-6.9529,-6.9524,-6.9321,-6.9293,-6.9266,-6.9236,-6.9536,-6.9536,-6.9733,-6.9735,-6.9737]}]]